RH
16 13 12 10 12 19 16 16 16 21 25 20 17 20 26 23 16 12 7 7 7 6 5 5 6 5 6 7 9 12 12 18 21 24 21 16 17 22 30 26 25 28 29
26 19 19 14 12 15 14 17 20 18 17 15 17 25 26 20 13 7 7 7 6 6 5 5 8 5 6 9 12 12 12 19 22 19 16 15 14 17 23 28 28 26 26
35 42 36 25 15 12 12 15 20 15 16 16 19 25 24 17 8 7 8 6 6 5 3 7 7 5 7 10 13 15 12 14 16 14 14 16 15 13 15 16 19 21 22
47 37 23 23 19 14 12 13 21 16 17 18 17 23 22 10 7 8 7 6 5 3 6 8 6 6 10 13 13 15 14 14 12 14 15 16 17 16 12 12 12 13 14
24 24 22 21 21 18 13 12 16 14 15 17 17 21 12 7 8 7 6 6 4 5 7 7 5 6 11 15 14 14 14 14 15 15 16 16 16 17 16 14 11 9 9
14 17 18 20 22 20 16 14 15 13 15 15 18 14 7 8 7 6 6 4 4 5 7 5 4 7 13 16 18 16 15 15 16 17 17 16 15 16 16 16 15 12 9
15 18 21 23 23 21 20 16 14 15 15 17 13 7 8 7 7 6 6 5 6 6 5 5 4 9 14 14 22 18 19 19 17 16 17 17 17 16 17 17 16 15 14
11 14 16 20 20 18 16 15 16 17 17 10 7 8 8 8 6 6 5 6 6 5 6 4 4 8 13 14 21 21 22 22 21 19 17 18 18 17 18 18 18 16 15
6 7 9 12 14 16 17 17 15 11 7 8 8 8 8 7 6 6 5 7 6 6 6 6 4 5 11 16 18 24 24 25 22 22 22 21 19 18 18 19 19 18 17
9 8 8 7 7 7 7 7 7 8 9 8 8 8 7 6 6 6 6 7 7 6 7 7 6 5 7 12 19 24 26 26 26 19 14 18 22 21 21 20 20 18 18
15 15 14 14 13 11 10 10 10 9 9 8 8 8 8 6 7 7 6 8 8 9 11 12 10 6 6 10 13 21 26 29 26 25 17 10 9 16 21 21 19 18 17
17 17 16 16 15 14 13 11 10 9 8 9 9 8 8 7 7 7 7 10 10 11 20 27 19 8 5 9 12 12 18 28 30 26 25 18 10 7 9 13 13 15 13
19 19 18 17 16 13 11 10 9 9 9 9 8 8 8 8 8 8 10 11 11 16 25 29 28 28 15 6 8 12 12 13 24 31 30 23 19 12 7 7 8 8 8
20 20 19 17 14 12 11 10 10 9 9 9 10 9 9 9 9 9 10 12 13 22 28 24 21 22 27 30 18 6 6 8 11 15 30 32 25 19 12 10 7 7 7
21 21 20 15 13 12 11 10 10 10 10 10 11 10 9 9 10 11 10 14 14 23 28 24 27 28 27 25 26 32 29 17 9 8 10 24 34 31 24 15 12 8 7
22 22 19 14 12 10 10 10 10 9 10 11 11 11 10 11 11 11 13 15 15 22 34 27 28 34 34 32 31 32 31 29 30 35 26 12 16 33 37 33 24 15 13
23 23 17 12 9 10 10 9 10 10 11 12 13 13 13 13 13 12 15 17 18 27 37 31 33 35 38 37 39 41 44 42 36 30 29 39 47 30 23 37 40 36 25
25 21 14 10 10 9 9 10 10 11 12 13 14 14 14 16 16 14 16 19 25 38 39 34 34 40 43 43 42 44 43 47 46 42 39 36 31 32 46 41 31 43 43
25 17 11 10 9 9 9 10 12 14 16 17 17 17 17 18 17 16 21 23 41 46 42 39 40 44 49 50 46 40 42 46 47 51 47 40 32 31 31 31 40 45 46
22 13 11 10 10 9 10 12 15 16 19 18 19 19 22 20 19 22 24 38 54 52 49 49 51 54 56 53 51 51 46 39 42 48 47 43 38 24 20 22 27 29 39
15 11 11 10 9 11 12 16 18 18 21 21 22 24 25 23 25 25 37 63 62 57 60 64 63 62 58 57 55 49 45 48 48 44 51 43 31 25 20 17 16 19 25
12 11 10 10 12 14 16 18 19 24 24 26 28 28 26 27 27 43 74 72 65 68 73 74 70 70 68 62 59 53 53 52 53 48 44 54 48 38 32 26 21 18 17
11 12 12 13 15 17 19 22 26 28 29 30 28 26 28 31 68 85 85 82 87 86 84 81 78 73 72 66 64 64 58 52 50 49 45 50 51 54 53 52 47 30 18
13 13 14 15 19 21 25 30 32 31 30 27 27 30 62 90 92 98 100 98 96 93 86 81 80 78 77 74 70 65 61 58 56 52 44 39 48 48 50 53 51 45 33
15 17 18 21 25 30 33 33 30 28 28 38 73 97 99 100 100 100 100 98 92 90 89 89 87 84 80 71 64 66 63 58 55 61 60 45 45 46 48 51 49 48 46
20 22 27 32 34 31 29 31 46 74 92 100 100 99 95 93 95 95 93 94 98 98 95 94 94 89 84 81 75 68 65 62 62 54 58 50 50 44 39 46 45 40 37
Wind_Speed
24 24 23 24 24 24 23 24 25 27 29 32 35 39 40 44 47 47 48 49 52 53 54 53 40 33 36 36 29 32 30 33 30 28 27 26 23 20 21 24 28 28 31
26 25 26 28 28 27 26 25 27 29 31 34 37 40 42 46 47 47 48 51 52 54 54 41 32 33 35 28 27 29 29 30 28 27 25 22 19 17 16 17 20 22 25
23 25 28 29 29 29 28 28 29 30 32 34 39 41 44 47 46 47 49 51 52 52 43 30 29 32 33 24 25 27 27 28 26 24 22 19 18 15 14 13 13 15 20
28 29 28 28 29 30 30 29 31 32 33 36 40 42 46 46 45 48 49 50 49 44 31 25 28 31 29 22 23 25 26 26 24 22 20 18 16 15 12 11 11 12 13
23 23 24 25 27 28 29 30 31 33 35 38 41 44 45 44 46 48 49 48 44 34 25 25 29 29 28 21 24 22 24 24 22 21 19 17 16 14 13 10 9 10 11
19 20 23 24 25 27 28 30 32 33 36 39 42 43 42 43 46 47 47 43 37 28 24 27 28 28 27 21 22 19 21 22 21 18 17 15 14 13 11 10 8 8 8
20 20 21 22 23 24 26 29 31 34 38 40 41 39 41 43 45 45 43 37 29 24 26 29 27 26 28 21 23 19 19 21 21 19 16 14 13 12 11 9 8 8 8
21 20 21 22 22 24 27 29 32 35 38 38 37 38 40 42 43 43 38 29 24 24 27 27 26 26 27 23 21 20 20 20 20 20 18 16 13 11 10 9 8 8 8
21 22 23 24 25 27 29 32 34 35 35 36 37 38 40 41 40 39 32 25 23 25 28 28 27 24 25 26 24 21 19 19 18 18 17 16 15 13 11 10 9 9 9
24 24 25 26 28 29 31 32 32 33 35 36 37 39 40 40 39 38 28 24 24 26 28 28 28 27 25 25 25 23 21 20 18 16 16 15 15 14 13 11 10 10 9
27 28 28 30 31 31 31 32 33 34 35 36 37 39 39 39 39 36 27 25 26 28 30 31 30 27 26 25 25 25 23 21 20 19 18 15 14 14 14 13 12 11 10
31 32 32 33 32 32 33 33 34 34 35 36 38 39 39 39 37 33 27 27 29 30 29 30 29 28 27 27 26 24 25 25 23 22 21 19 17 15 14 14 14 13 11
34 36 35 35 34 34 34 34 35 35 36 37 39 39 39 39 37 32 27 29 30 31 31 32 29 28 28 28 29 29 28 26 26 25 25 24 22 19 17 16 15 15 14
38 38 38 37 36 35 35 35 36 37 37 38 39 39 39 39 37 32 29 31 31 34 35 34 31 30 29 30 30 31 32 31 29 28 28 27 27 26 23 20 19 18 18
41 41 40 38 37 36 37 37 38 38 38 39 39 39 40 40 38 33 31 32 33 36 38 33 33 33 32 31 30 31 32 33 33 32 31 31 30 30 30 28 26 24 23
43 43 42 39 38 38 38 39 40 40 40 40 40 40 40 40 38 34 32 35 37 37 36 36 37 35 36 36 34 32 32 32 34 35 36 34 34 34 34 34 34 32 30
45 45 43 41 40 40 41 42 41 41 41 42 42 41 41 40 40 35 35 38 40 40 37 38 38 39 39 40 41 40 38 36 35 35 35 36 37 38 39 39 38 38 38
47 46 44 43 43 43 43 43 44 43 43 43 44 43 43 44 42 39 39 42 43 41 40 40 40 42 43 44 45 45 44 42 38 37 38 38 38 38 39 41 42 41 41
47 46 45 45 46 46 46 46 46 45 45 45 45 46 46 47 44 41 44 45 45 43 43 43 44 45 47 47 48 49 48 45 46 42 40 40 41 42 40 41 42 43 43
48 47 48 48 48 48 48 49 48 48 47 47 48 49 50 49 45 46 48 48 48 46 46 48 49 49 49 51 52 51 51 51 50 48 47 43 42 42 44 44 45 44 45
50 50 50 49 50 50 51 51 50 50 49 50 52 53 53 50 49 50 52 51 50 50 51 51 52 52 53 54 55 56 55 54 51 50 48 48 47 45 45 44 45 46 46
51 52 51 51 52 53 54 53 54 53 53 55 56 57 55 53 54 54 54 54 54 55 55 54 55 56 56 57 57 59 58 56 53 55 52 52 52 50 50 49 49 48 48
52 52 53 54 55 56 56 56 56 56 58 59 60 57 57 58 57 57 57 58 57 57 57 57 58 58 59 59 60 60 61 61 59 58 56 53 54 54 56 57 55 53 52
55 56 57 58 58 58 58 58 59 61 62 61 60 60 60 60 59 59 58 58 58 58 59 59 59 60 59 60 61 62 61 59 58 60 61 59 60 59 58 59 61 58 58
59 58 59 59 59 60 62 63 63 62 63 64 64 63 60 58 57 57 58 59 60 61 61 60 60 61 62 63 63 63 63 62 62 61 63 63 62 61 61 62 62 63 61
59 60 61 62 64 64 64 64 65 66 66 64 60 57 57 58 59 60 61 62 62 62 61 61 61 61 62 63 65 65 65 65 65 64 68 66 66 67 64 64 63 63 62
Wind_Direction
267 271 274 276 278 284 288 293 297 301 304 309 314 316 317 322 323 325 327 328 329 330 328 327 325 326 328 330 323 330 330 335 332 326 323 320 312 301 278 259 255 252 242
267 269 273 275 277 281 285 291 297 301 305 308 312 315 319 321 324 326 328 329 330 328 326 325 327 328 331 331 332 332 337 339 333 331 332 330 322 310 296 275 261 253 247
268 273 278 276 276 278 284 289 297 301 305 308 313 316 318 321 324 326 329 330 330 327 326 327 328 329 332 330 334 336 343 341 338 338 341 338 333 321 307 294 281 262 248
267 271 276 277 277 277 282 287 295 298 304 309 311 315 318 321 325 327 329 330 330 327 329 330 330 331 333 327 333 336 343 343 339 343 346 345 344 340 327 307 288 273 265
274 276 277 278 279 280 281 286 293 298 305 308 312 315 318 323 326 328 330 332 329 330 332 331 330 332 333 327 333 339 343 344 342 345 346 349 348 346 343 332 309 291 281
280 282 282 283 283 281 283 287 292 298 305 308 312 315 320 324 326 329 331 330 329 332 333 330 330 333 334 326 331 335 341 345 345 345 344 349 351 351 348 341 333 312 295
286 288 289 286 284 285 286 289 296 300 303 308 311 318 322 324 326 329 330 329 330 335 335 332 332 334 336 327 329 329 335 340 341 343 343 343 346 350 352 347 337 328 310
285 289 291 290 291 290 291 295 299 301 304 308 314 318 323 324 326 328 328 328 331 333 334 332 332 334 336 329 323 324 328 335 339 339 339 339 337 339 341 341 341 336 326
287 288 289 291 292 292 294 296 297 300 305 309 314 318 320 323 325 325 321 323 326 330 332 334 329 327 330 333 323 318 319 323 330 334 337 335 333 327 326 324 320 319 320
285 286 288 290 291 292 294 296 300 303 306 309 314 317 319 321 323 321 311 315 318 321 324 328 327 324 322 324 326 317 311 313 314 318 325 327 327 322 315 310 306 304 302
283 286 288 288 290 292 294 297 300 302 306 309 313 315 317 319 318 318 301 306 310 314 318 320 321 319 318 318 320 322 313 304 304 304 307 313 312 312 309 303 297 293 289
283 285 286 288 289 292 294 297 299 302 305 308 311 312 315 316 315 313 297 302 308 311 314 316 317 314 310 309 310 314 315 311 301 296 295 297 302 300 295 294 291 285 281
282 284 286 288 289 290 293 296 298 302 304 307 308 310 312 314 311 307 297 300 304 307 307 309 310 309 309 304 302 304 307 307 307 299 290 288 287 289 290 283 281 279 275
281 283 286 288 289 291 293 296 299 301 303 304 305 308 308 308 307 302 291 299 301 303 305 307 307 308 306 303 302 299 299 299 299 298 297 286 281 282 280 280 276 271 269
281 284 286 287 289 292 295 297 298 299 299 300 302 304 304 304 304 296 284 296 299 303 304 302 303 303 304 302 299 297 297 297 295 293 291 290 287 277 275 274 271 271 268
281 284 286 287 290 292 294 296 296 296 296 297 299 298 300 301 301 292 286 295 295 299 298 295 297 301 302 301 299 296 294 293 292 291 290 288 284 283 279 272 270 268 266
281 284 286 287 289 291 293 294 294 294 293 294 294 296 297 296 297 286 285 292 293 296 293 290 292 296 297 298 298 298 295 292 290 288 287 287 284 282 280 279 274 268 266
280 283 284 286 289 291 291 292 291 290 289 290 292 294 295 295 294 282 285 289 290 291 290 288 290 293 294 294 296 297 296 294 287 285 285 283 283 281 280 278 276 275 270
280 283 285 286 288 289 289 289 287 287 286 288 291 292 292 293 291 281 285 287 290 289 287 286 288 289 289 289 291 292 293 294 291 286 282 282 282 282 279 278 276 274 272
281 282 283 285 286 287 286 284 283 284 286 288 289 290 291 291 284 283 285 287 287 287 287 286 285 285 285 286 287 289 291 292 292 291 287 282 278 277 278 277 277 275 275
280 280 282 283 284 283 283 282 283 284 285 286 287 288 290 287 284 284 285 285 284 284 285 285 284 284 283 284 286 287 288 289 289 288 286 284 282 277 273 273 274 273 272
279 281 281 282 282 281 282 282 282 283 285 286 288 289 288 285 285 285 285 284 284 284 284 283 283 282 282 281 283 284 285 286 286 284 285 282 278 277 278 276 274 273 273
277 276 279 280 279 279 280 281 283 284 285 287 287 287 286 286 286 285 284 285 285 284 283 283 283 283 283 282 282 284 285 286 284 282 281 280 278 277 278 277 272 272 271
273 274 275 276 277 279 280 281 283 284 285 286 286 285 284 285 284 283 283 283 282 282 283 283 283 282 282 282 283 283 283 281 280 280 278 278 280 279 275 273 272 271 270
272 274 276 277 278 279 280 282 283 284 284 284 284 284 285 283 282 280 279 281 281 282 283 284 284 284 284 283 283 283 283 281 279 280 280 279 278 277 277 279 276 272 268
274 275 276 278 279 280 281 283 283 283 284 285 286 283 280 279 279 279 280 281 282 283 284 284 284 285 285 286 286 284 283 282 281 279 282 279 279 276 275 278 278 276 273